• Join FlightAware (Why Join?)
  • Login
  • US Flag 
08:51AM EDT


 

Airport Tracker/Info


-or-


 

Live Flight TrackerFlight Track Log ✈ ASA55 ✈ 23-Feb-2014 ✈ PASC / SCC - PABR / BRW

Flight Track Log - Related Links

Times and Time Zones

All times are in EST time to prevent confusion due to time zone crossing. See the ASA55 flight status page for this flight to view local times or setup timezone preferences in your user account.

Time Position Orientation Groundspeed Altitude Reporting Facility
EST Latitude Longitude Course Direction KTS MPH feet Rate Location/Type
01:41PM 70.2500 -148.6833 285° West 260 299 6,300  Level Anchorage Center
01:42PM 70.2667 -148.9000 283° West 260 299 9,900 2,760 Climbing Anchorage Center
01:43PM 70.3000 -149.1167 295° West 310 357 11,900 2,640 Climbing Anchorage Center
01:44PM 70.3333 -149.3667 292° West 340 391 15,300 3,180 Climbing Anchorage Center
01:45PM 70.4314 -150.0326 294° West  Level FlightAware Approximate
01:45PM 70.3833 -149.6333 299° West 350 403 18,400  Level Anchorage Center
01:46PM 70.4167 -149.8833 292° West 360 414 21,400 2,760 Climbing Anchorage Center
01:47PM 70.4500 -150.1667 289° West 360 414 24,000 2,340 Climbing Anchorage Center
01:48PM 70.5000 -150.4500 298° West 390 449 26,200 2,400 Climbing Anchorage Center
01:49PM 70.5500 -150.7500 297° West 390 449 28,800 2,460 Climbing Anchorage Center
01:50PM 70.5833 -151.0333 290° West 380 437 31,200 1,560 Climbing Anchorage Center
01:51PM 70.6167 -151.3333 289° West 390 449 32,000 360 Climbing Anchorage Center
01:52PM 70.6667 -151.6333 297° West 390 449 32,000  Level Anchorage Center
01:53PM 70.7000 -151.9167 290° West 370 426 32,000  Level Anchorage Center
01:54PM 70.7500 -152.2167 297° West 370 426 32,000  Level Anchorage Center
01:55PM 70.7833 -152.5167 289° West 380 437 32,000  Level Anchorage Center
01:56PM 70.8167 -152.8500 287° West 390 449 32,000  Level Anchorage Center
01:57PM 70.8667 -153.1500 297° West 380 437 32,000  Level Anchorage Center
01:58PM 70.9000 -153.4667 288° West 380 437 32,000 -600 Level Anchorage Center
01:59PM 70.9333 -153.7667 289° West 400 460 30,900 -1,500 Descending Anchorage Center
02:00PM 70.9667 -154.0833 288° West 390 449 29,100 -2,400 Descending Anchorage Center
02:01PM 71.0167 -154.4000 296° West 390 449 26,100 -3,120 Descending Anchorage Center
02:02PM 71.0500 -154.7000 289° West 390 449 22,900 -3,180 Descending Anchorage Center
02:03PM 71.0833 -155.0167 288° West 390 449 19,800 -2,580 Descending Anchorage Center
02:04PM 71.1167 -155.3167 289° West 360 414 17,800 -2,160 Descending Anchorage Center
02:05PM 71.1500 -155.6000 290° West 340 391 15,500 -2,220 Descending Anchorage Center
02:06PM 71.1667 -155.8667 281° West 330 380 13,400 -2,040 Descending Anchorage Center
02:07PM 71.2000 -156.1167 293° West 300 345 11,500 -1,560 Descending Anchorage Center
02:08PM 71.2167 -156.3667 282° West 290 334 10,300 -840 Descending Anchorage Center
02:09PM 71.2500 -156.5333 302° West 260 299 9,900 -780 Descending Anchorage Center
02:11PM 71.2833 -157.0000 18° North 220 253 7,800 -1,020 Descending Anchorage Center
02:12PM 71.2833 -157.1833 270° West 200 230 6,700 -1,080 Descending Anchorage Center
02:13PM 71.2500 -157.3000 228° Southwest 180 207 5,700 -1,020 Descending Anchorage Center
02:15PM 71.2833 -157.3500 334° Northwest 180 207 3,700 -1,020 Descending Anchorage Center
02:16PM 71.2833 -157.2167 90° East 160 184 2,800 -840 Descending Anchorage Center
02:17PM 71.2833 -157.1000 90° East 130 150 2,100 -600 Descending Anchorage Center
02:18PM 71.2833 -157.0000 90° East 120 138 1,700 -540 Descending Anchorage Center
02:19PM 71.2833 -156.9167 90° East 120 138 1,100 -600 Descending Anchorage Center